[[{"header":{"parameterUnit":"m.s-1","parameterCategory":1,"la1":30.2991,"la2":30.254,"lo1":-89.0895,"lo2":-89.0444,"dy":0.0017,"dx":0.0017,"nx":28,"ny":28,"refTime":"2024-02-28T03:00:00:Z","depth":0,"parameterNumber":2,"parameterNumberName":"U-component_of_WINDS"},"data":[0,0,0,0,0,0,0,0,0,0,0,0,0,0,0,0,0,0,0,0,0,0,0,0,0,0,0,0,0,0,0,0,0,0,0,0,0,0,0,0,0,0,0,0,0,0,0,0,0,0,0,0,0,0,0,0,0,0,1.0903,1.0904,0,1.0994,1.0995,1.0996,1.1008,1.1007,1.1006,1.1006,1.11,1.1103,1.1107,0,0,0,0,0,0,0,0,0,0,0,0,0,1.0741,1.0744,1.0903,1.0904,1.0905,1.0993,1.0995,1.0996,1.1008,1.1007,1.1006,1.1005,1.1099,1.1103,1.1107,0,0,0,0,0,0,0,0,0,0,0,0,0,1.082,1.0745,1.0902,1.0922,1.0924,1.0993,1.0995,1.0996,1.1008,1.1007,1.1006,1.1005,1.1098,1.1102,1.1107,1.1164,0,0,1.1123,1.1125,0,0,0,0,0,0,0,0,1.0815,1.0826,1.0918,1.092,1.0924,1.0988,1.0972,1.1052,1.1009,1.0977,1.1006,1.1004,1.1064,1.1072,1.1092,1.1168,1.1172,1.1123,1.1126,1.1128,1.113,0,0,0,0,0,0,0,1.081,1.0822,1.0939,1.0919,1.0923,1.0926,1.0936,1.0988,1.1026,1.0979,1.098,1.0991,1.1065,1.1087,1.1094,1.1174,1.1123,1.1127,1.113,1.1132,1.1302,1.1303,0,0,0,0,0,0,1.0801,1.0817,1.0936,1.0941,1.0865,1.093,1.0941,1.0969,1.1026,1.1033,1.0992,1.0991,1.1079,1.1088,1.1097,1.1167,1.1128,1.1133,1.1136,1.13,1.1302,1.1304,0,0,0,0,0,0,1.0797,1.0811,1.0932,1.088,1.0895,1.0934,1.0965,1.0971,1.0993,1.1035,1.1042,1.1006,1.1078,1.109,1.1147,1.1171,1.1135,1.114,1.1298,1.1301,1.1303,1.1307,0,0,0,0,0,0,1.0792,1.081,1.0831,1.088,1.0898,1.098,1.0967,1.0974,1.1001,1.1001,1.1051,1.1058,1.1078,1.114,1.1152,1.1177,1.1143,1.1297,1.13,1.1302,1.1305,1.1309,1.1313,0,0,0,0,0,1.0787,1.0829,1.0832,1.0846,1.0925,1.0981,1.0992,1.1013,1.1003,1.1025,1.1052,1.1056,1.1166,1.1145,1.1159,1.1186,1.1295,1.1299,1.1302,1.1303,1.1308,1.1313,0,0,0,0,0,0,1.0782,1.0836,1.084,1.0899,1.0935,1.0983,1.1012,1.1018,1.1059,1.1057,1.1083,1.1094,1.115,1.1174,1.115,1.1244,1.123,1.1236,1.1226,1.1231,1.1235,1.1228,1.1148,0,0,0,0,0,1.0788,1.0828,1.0873,1.0921,1.0939,1.0972,1.0997,1.1011,1.105,1.1065,1.1097,1.1135,1.1178,1.1206,1.1248,1.1309,1.132,1.1334,1.1338,1.1341,1.1346,1.138,1.1387,1.1315,1.1315,1.1315,0,0,1.08,1.0835,1.0858,1.0921,1.0951,1.0992,1.0985,1.1029,1.1061,1.1072,1.1128,1.1153,1.1197,1.1256,1.1284,1.1278,1.1369,1.1345,1.1347,1.1351,1.1385,1.1391,1.1397,1.1317,1.1317,1.1317,0,0,1.0844,1.0874,1.0917,1.0947,1.0993,1.1014,1.1025,1.1072,1.1089,1.1145,1.1155,1.1193,1.1266,1.1298,1.1323,1.138,1.1385,1.1393,1.1413,1.1446,1.1452,1.1457,1.1477,1.1484,1.1398,1.1398,1.1398,0,1.0854,1.0916,1.0939,1.0983,1.101,1.1023,1.1067,1.1095,1.1152,1.1171,1.1164,1.1256,1.1287,1.1354,1.1368,1.1388,1.1401,1.1387,1.1449,1.1454,1.146,1.1479,1.1487,1.1398,1.1398,1.1398,1.1398,0,1.0926,1.097,1.0999,1.1053,1.1084,1.1128,1.1158,1.1187,1.1198,1.1221,1.1278,1.1316,1.1365,1.1382,1.1394,1.1451,1.1446,1.1444,1.143,1.1467,1.1486,1.1493,1.1399,1.1399,1.1399,1.1399,0,0,1.0969,1.1035,1.1046,1.1071,1.1122,1.1156,1.1201,1.125,1.1274,1.1313,1.1351,1.1414,1.1412,1.1441,1.1456,1.1485,1.1528,1.1479,1.1481,1.1487,1.1594,1.1595,1.1603,1.1532,1.1534,1.1535,1.159,0,1.1019,1.1098,1.112,1.1188,1.1228,1.1241,1.1281,1.1317,1.1339,1.1378,1.1403,1.1447,1.1441,1.1459,1.1488,1.1516,1.155,1.1513,1.1569,1.157,1.1557,1.1613,1.1614,1.1664,1.1597,1.1599,1.16,0,1.1087,1.1127,1.1199,1.1245,1.1263,1.1298,1.1344,1.138,1.1422,1.1437,1.1469,1.1482,1.153,1.1514,1.1581,1.1556,1.158,1.1597,1.16,1.1606,1.1587,1.162,1.1681,1.1688,1.1611,1.161,1.161,0,1.1111,1.1183,1.1235,1.1256,1.1311,1.1335,1.136,1.14,1.1428,1.1469,1.1487,1.1534,1.1559,1.1595,1.162,1.1606,1.1685,1.1671,1.1699,1.1698,1.1714,1.1713,1.178,1.173,1.173,1.173,1.173,0,1.1164,1.1207,1.1246,1.1278,1.1328,1.1353,1.1401,1.1426,1.1462,1.1499,1.1514,1.1549,1.158,1.162,1.164,1.1693,1.1704,1.1718,1.1722,1.1716,1.1714,1.1732,1.1729,1.1732,1.1732,1.1731,1.1731,0,1.1198,1.1226,1.1284,1.1332,1.1345,1.1379,1.142,1.1452,1.1476,1.1523,1.1536,1.1573,1.1621,1.165,1.171,1.1724,1.1782,1.1785,1.1767,1.177,1.1796,1.1793,1.1876,1.1888,1.1831,1.1831,1.1832,0,1.123,1.1264,1.1315,1.1341,1.1365,1.1407,1.1436,1.1462,1.1491,1.1541,1.1568,1.1616,1.1656,1.1731,1.1764,1.1811,1.1815,1.1841,1.1822,1.1815,1.1816,1.1813,1.1817,1.1844,1.1845,1.1845,1.1846,0,1.1283,1.1296,1.1336,1.1381,1.1415,1.1452,1.1489,1.151,1.1543,1.1575,1.1623,1.1654,1.1716,1.1764,1.1813,1.1839,1.1848,1.1851,1.186,1.1854,1.1842,1.1849,1.1776,1.1849,1.1849,1.1849,1.1848,1.1848,1.1317,1.1348,1.1389,1.1433,1.1464,1.1499,1.1531,1.1559,1.1599,1.1651,1.1665,1.1715,1.1757,1.1824,1.1851,1.1892,1.1888,1.1901,1.1904,1.1907,1.1907,1.1836,1.1901,1.1901,1.1901,1.1901,1.1901,0,1.1371,1.1398,1.1439,1.149,1.1526,1.1531,1.1572,1.1602,1.1646,1.1684,1.1723,1.1779,1.1826,1.1862,1.1911,1.1936,1.1942,1.1948,1.1946,1.1952,1.1908,1.1896,1.1943,1.1943,1.1943,1.1943,1.1943,1.1943,1.1403,1.1455,1.1473,1.154,1.1567,1.1617,1.164,1.1672,1.1703,1.1764,1.1803,1.1827,1.1864,1.1916,1.1959,1.1969,1.1986,1.1992,1.2002,1.196,1.1955,1.1951,1.1939,1.1995,1.1995,1.2043,1.2043,1.2044]},{"header":{"parameterUnit":"m.s-1","parameterCategory":1,"la1":30.2991,"la2":30.254,"lo1":-89.0895,"lo2":-89.0444,"dy":0.0017,"dx":0.0017,"nx":28,"ny":28,"refTime":"2024-02-28T03:00:00:Z","depth":0,"parameterNumber":3,"parameterNumberName":"V-component_of_WINDS"},"data":[0,0,0,0,0,0,0,0,0,0,0,0,0,0,0,0,0,0,0,0,0,0,0,0,0,0,0,0,0,0,0,0,0,0,0,0,0,0,0,0,0,0,0,0,0,0,0,0,0,0,0,0,0,0,0,0,0,0,-6.2247,-6.2243,0,-6.1879,-6.1875,-6.187,-6.1796,-6.1799,-6.1802,-6.1805,-6.1404,-6.1391,-6.1378,0,0,0,0,0,0,0,0,0,0,0,0,0,-6.2863,-6.2852,-6.2247,-6.2242,-6.2238,-6.188,-6.1875,-6.1869,-6.1796,-6.1799,-6.1803,-6.1806,-6.1408,-6.1393,-6.1377,0,0,0,0,0,0,0,0,0,0,0,0,0,-6.2555,-6.2849,-6.2248,-6.2158,-6.2147,-6.1881,-6.1874,-6.1868,-6.1795,-6.1799,-6.1804,-6.1808,-6.1414,-6.1394,-6.1374,-6.1164,0,0,-6.1313,-6.1304,0,0,0,0,0,0,0,0,-6.2573,-6.2532,-6.2176,-6.2164,-6.2151,-6.1889,-6.1945,-6.1631,-6.1794,-6.1928,-6.1805,-6.181,-6.156,-6.1528,-6.1449,-6.1145,-6.1128,-6.1311,-6.1299,-6.1291,-6.1285,0,0,0,0,0,0,0,-6.2594,-6.2548,-6.2101,-6.2171,-6.2155,-6.2129,-6.209,-6.1885,-6.1723,-6.1916,-6.191,-6.1869,-6.1554,-6.1468,-6.1439,-6.1122,-6.1312,-6.1294,-6.1282,-6.1274,-6.0623,-6.0618,0,0,0,0,0,0,-6.2634,-6.2566,-6.2112,-6.209,-6.2378,-6.2115,-6.2071,-6.1968,-6.1725,-6.1693,-6.1866,-6.1867,-6.1501,-6.1462,-6.1425,-6.116,-6.1291,-6.1272,-6.126,-6.0629,-6.0622,-6.0617,0,0,0,0,0,0,-6.2648,-6.2595,-6.2127,-6.2326,-6.2265,-6.21,-6.1984,-6.1958,-6.1873,-6.1688,-6.1656,-6.181,-6.1502,-6.1453,-6.123,-6.1145,-6.1263,-6.1245,-6.0635,-6.0627,-6.0619,-6.0631,0,0,0,0,0,0,-6.2666,-6.26,-6.2524,-6.2325,-6.2255,-6.1946,-6.1979,-6.1948,-6.1842,-6.184,-6.1627,-6.1595,-6.1502,-6.1261,-6.121,-6.1119,-6.1229,-6.0642,-6.0631,-6.0622,-6.0637,-6.0624,-6.0613,0,0,0,0,0,-6.2688,-6.2536,-6.252,-6.2466,-6.2157,-6.1941,-6.19,-6.1803,-6.1835,-6.1753,-6.1634,-6.1602,-6.1164,-6.1239,-6.1181,-6.1083,-6.0646,-6.0634,-6.0623,-6.0642,-6.0627,-6.0613,0,0,0,0,0,0,-6.2719,-6.2509,-6.2488,-6.2269,-6.2125,-6.1929,-6.1823,-6.1789,-6.1626,-6.163,-6.1509,-6.1461,-6.1245,-6.1142,-6.1229,-6.0865,-6.0906,-6.0882,-6.094,-6.0924,-6.0912,-6.0939,-6.1212,0,0,0,0,0,-6.2703,-6.2554,-6.2374,-6.2197,-6.2127,-6.1988,-6.189,-6.1829,-6.1671,-6.1607,-6.1471,-6.1312,-6.1139,-6.1026,-6.0856,-6.0624,-6.0572,-6.0527,-6.0516,-6.0507,-6.0485,-6.0351,-6.0327,-6.0578,-6.0578,-6.0578,0,0,-6.2663,-6.2529,-6.244,-6.2201,-6.2081,-6.1922,-6.1936,-6.1767,-6.1645,-6.1578,-6.1361,-6.1257,-6.1071,-6.0843,-6.0735,-6.0749,-6.0406,-6.0492,-6.0486,-6.0469,-6.0336,-6.0313,-6.0292,-6.057,-6.0571,-6.0573,0,0,-6.2508,-6.2395,-6.2235,-6.2117,-6.194,-6.1849,-6.1811,-6.1621,-6.1551,-6.1334,-6.1281,-6.113,-6.0835,-6.0704,-6.0599,-6.0399,-6.0361,-6.0347,-6.0281,-6.0152,-6.0132,-6.0114,-6.0038,-6.0013,-6.0327,-6.0327,-6.0327,0,-6.2478,-6.2244,-6.2155,-6.1989,-6.1882,-6.1825,-6.1658,-6.1545,-6.1317,-6.1242,-6.1265,-6.0894,-6.0764,-6.0503,-6.0455,-6.0373,-6.032,-6.0368,-6.0144,-6.0125,-6.0106,-6.0032,-6.0004,-6.0326,-6.0326,-6.0327,-6.0327,0,-6.2214,-6.2052,-6.1942,-6.1734,-6.1615,-6.1449,-6.1329,-6.1218,-6.1168,-6.1073,-6.0849,-6.0694,-6.0491,-6.0425,-6.0371,-6.0155,-6.0169,-6.017,-6.0207,-6.0083,-6.0011,-5.9982,-6.0325,-6.0325,-6.0326,-6.0326,0,0,-6.2062,-6.1813,-6.1773,-6.1677,-6.1479,-6.1347,-6.1177,-6.0987,-6.0893,-6.0738,-6.0587,-6.0341,-6.0341,-6.0222,-6.0152,-6.004,-5.9886,-6.0052,-6.0046,-6.0023,-5.9633,-5.9631,-5.96,-5.9863,-5.9857,-5.9853,-5.9647,0,-6.1881,-6.1584,-6.15,-6.1245,-6.1091,-6.1036,-6.0886,-6.0744,-6.0651,-6.0501,-6.0395,-6.0221,-6.0236,-6.0164,-6.005,-5.993,-5.9805,-5.9944,-5.9713,-5.9706,-5.9758,-5.9563,-5.956,-5.9373,-5.9619,-5.9614,-5.9611,0,-6.1628,-6.1478,-6.1211,-6.1034,-6.0965,-6.0834,-6.0652,-6.0513,-6.0348,-6.0288,-6.0158,-6.01,-5.9912,-5.9966,-5.9702,-5.9798,-5.9699,-5.9626,-5.9616,-5.9585,-5.9647,-5.9523,-5.9312,-5.9282,-5.9566,-5.957,-5.9573,0,-6.154,-6.1271,-6.1076,-6.0996,-6.0785,-6.0693,-6.0599,-6.0441,-6.0332,-6.0171,-6.0098,-5.9915,-5.9812,-5.9669,-5.9559,-5.9609,-5.9303,-5.9348,-5.9241,-5.9244,-5.9174,-5.9179,-5.8939,-5.912,-5.912,-5.9121,-5.9122,0,-6.1342,-6.118,-6.1034,-6.0913,-6.0728,-6.0631,-6.0447,-6.035,-6.021,-6.0063,-6.0003,-5.9865,-5.9733,-5.9575,-5.9488,-5.928,-5.9235,-5.9176,-5.9153,-5.9178,-5.9185,-5.9107,-5.9115,-5.9113,-5.9115,-5.9117,-5.9118,0,-6.121,-6.1107,-6.089,-6.0712,-6.0662,-6.0533,-6.0375,-6.0252,-6.016,-5.9976,-5.9926,-5.9777,-5.9589,-5.9469,-5.9226,-5.9168,-5.8939,-5.8923,-5.8997,-5.8985,-5.8883,-5.8893,-5.858,-5.8532,-5.8751,-5.8749,-5.8748,0,-6.1088,-6.0963,-6.0774,-6.0676,-6.0584,-6.0426,-6.0317,-6.0216,-6.0103,-5.9909,-5.9808,-5.9619,-5.9461,-5.9162,-5.9026,-5.884,-5.8815,-5.8719,-5.8786,-5.8815,-5.8807,-5.8814,-5.8799,-5.8706,-5.8704,-5.8703,-5.8701,0,-6.0882,-6.0838,-6.0688,-6.052,-6.0394,-6.0254,-6.0113,-6.0034,-5.9908,-5.9783,-5.9595,-5.9474,-5.9232,-5.9041,-5.8844,-5.8738,-5.8694,-5.8683,-5.8647,-5.8668,-5.8714,-5.8683,-5.8961,-5.8689,-5.869,-5.8691,-5.8691,-5.8692,-6.0747,-6.0633,-6.0483,-6.0316,-6.0203,-6.0074,-5.995,-5.9845,-5.969,-5.949,-5.9438,-5.924,-5.9076,-5.8809,-5.87,-5.8538,-5.8549,-5.8498,-5.8484,-5.8472,-5.8469,-5.8747,-5.8501,-5.8502,-5.8502,-5.8502,-5.8502,0,-6.0533,-6.0436,-6.0285,-6.0095,-5.9963,-5.9947,-5.979,-5.9678,-5.9508,-5.9364,-5.9213,-5.8994,-5.881,-5.8664,-5.8472,-5.837,-5.8346,-5.8323,-5.8326,-5.8301,-5.8472,-5.852,-5.8346,-5.8346,-5.8346,-5.8346,-5.8346,-5.8346,-6.0406,-6.0212,-6.0151,-5.9897,-5.9798,-5.9611,-5.9522,-5.94,-5.9285,-5.9048,-5.8898,-5.8808,-5.8659,-5.8458,-5.8286,-5.8246,-5.8175,-5.8156,-5.8112,-5.8272,-5.8289,-5.8306,-5.835,-5.8143,-5.8143,-5.7953,-5.7952,-5.795]}]]